Home   Weather   Bend   Past weeks
Flag for USA

Past Weather in Bend, Oregon, USA — Yesterday and Last 2 Weeks

Now
57 °F

Clear.


Feels Like: 56 °F
Forecast: 57 / 34 °F
Wind: 7 mph from Northwest

Location: Roberts Field Airport

Current Time: Oct 22, 2019 at 7:43:02 pm

Latest Report: Oct 22, 2019 at 6:56 pm


Visibility: 10 mi

Pressure: 30.35 "Hg (26.62 "Hg at 1103m altitude)

Humidity: 51%

Dew Point: 39 °F

Location of BendLocation

Past Weather in Bend — Graph

°F

Bend Temperature Yesterday

Maximum temperature yesterday: 62 °F (at 1:56 pm)
Minimum temperature yesterday: 45 °F (at 11:56 pm)
Average temperature yesterday: 54 °F

High & Low Weather Summary for the Past Weeks

 TemperatureHumidityPressure
High72 °F (Oct 15, 1:56 pm)93% (Oct 14, 7:04 am)30.50 "Hg (Oct 14, 7:04 am)
Low16 °F (Oct 10, 6:56 am)15% (Oct 16, 12:56 pm)29.64 "Hg (Oct 19, 4:56 am)
Average46 °F56%30.05 "Hg
* Reported Oct 7 5:56 pm — Oct 22 5:56 pm, Bend. Weather by CustomWeather, © 2019

Note: Actual official high and low records may vary slightly from our data, if they occured in-between our weather recording intervals... More about our weather records

Advertising

Bend Weather History for the Previous 24 Hours

Scroll right to see more
 ConditionsComfort  
Time TempWeatherWind HumidityBarometerVisibility
5:56 pm
Tue, Oct 22
60 °FSunny.7 mph46%30.34 "Hg10 mi
4:56 pm64 °FSunny.13 mph40%30.33 "Hg10 mi
3:56 pm66 °FSunny.14 mph33%30.33 "Hg10 mi
2:56 pm68 °FSunny.13 mph30%30.32 "Hg10 mi
1:56 pm68 °FSunny.18 mph35%30.32 "Hg10 mi
12:56 pm66 °FSunny.15 mph42%30.32 "Hg10 mi
11:56 am66 °FSunny.17 mph42%30.34 "Hg10 mi
10:56 am62 °FSunny.8 mph54%30.32 "Hg10 mi
9:56 am60 °FSunny.5 mph60%30.33 "Hg10 mi
8:56 am54 °FMostly cloudy.No wind72%30.34 "Hg10 mi
7:56 am50 °FOvercast.No wind77%30.34 "Hg10 mi
6:56 am49 °FOvercast.3 mph77%30.32 "Hg10 mi
5:56 am47 °FOvercast.5 mph80%30.30 "Hg10 mi
4:56 am49 °FPassing clouds.3 mph77%30.29 "Hg10 mi
3:56 am48 °FPassing clouds.5 mph80%30.29 "Hg10 mi
2:56 am45 °FPassing clouds.9 mph86%30.32 "Hg10 mi
1:56 am43 °FClear.7 mph86%30.33 "Hg10 mi
11:56 pm
Mon, Oct 21
45 °FClear.3 mph82%30.34 "Hg10 mi
10:56 pm49 °FPassing clouds.6 mph77%30.34 "Hg10 mi
9:56 pm51 °FPassing clouds.3 mph74%30.33 "Hg10 mi
8:56 pm53 °FOvercast.No wind72%30.33 "Hg10 mi
7:56 pm55 °FOvercast.5 mph67%30.30 "Hg10 mi
Weather by CustomWeather, © 2019

See weather overview